Whiting Field Naval Air Station north Airport Milton US
ICAO: KNSE
IATA: NSE
Category: Medium
Scheduled Services: No

Elevation: 199 ft
TransAlt. 18000 ft.

Airport Communications:
PENSACOLA APP/DEP:127.35
ATIS:29.032
CLNC DEL:25.777
GND:25.115
BASE OPS:23.37
PMSV METRO:31.695
TWR:121.4

KNSE Zoom In..

If you have problems with the map follow the link
https://www.worldairports.se/pages/airport.php?
ICAO=KNSE

Runways:

(A) RW 05 length 6002 ft width 200 ft
---- / hdg 49

(B) RW 14 length 6002 ft width 200 ft
ILS 111.75 / hdg 139

(C) RW 23 length 6002 ft width 200 ft
---- / hdg 229

(D) RW 32 length 6002 ft width 200 ft
---- / hdg 319

Location; KNSE
Day. 16 / Time. 02.56 Zulu
* Altimeter: 30.23
* Temperature: 02° c. 35.6°f.
* Wind from: 000° Speed 00 kn.
Dewpoint: 01° c.
Visibility: 10 Statute Miles.
Clouds: Clear (automated report).

KNSE 160256Z 00000KT 10SM CLR 02/01 A3023 RMK SLP226 T00170011 51012


Wind - Calm.

 
 
jpsmedia.com for Web Design worldairports.se 2018   terms of use